STARLINK-3950, 53264

Orbit data source: Space-Track

STARLINK-3950, 53264 is a payload satellite owned by SpaceX/Seattle (US) in LEO that was launched on Sun, 24 Jul 2022 UTC via an FALCON 9 launch vehicle from the Air Force Eastern Test Range (AFETR). Payload-class satellites include a variety of spacecraft equipped with specific instruments for various scientific and technological missions. These include communications satellites like Starlink; space stations such as the ISS; scientific satellites like the Hubble; Earth observation satellites from companies like Planet Labs, Umbra, and HawkEye 360; GPS; miniature CubeSats for education and research; and military/defense satellites.

Loading next visibility...
Identifier
53264, 2022-086Y
Orbit
LEO
Country
Flag of USUS
Related business
Manufacturer
SpaceX/Seattle
Mission
Operational Commercial Communications
Bus & Motor
STARLINK, Unknown motor
Mass
297 kg wet, ~275 kg dry
Launch date (UTC)
2022-07-24 (4 years ago)
Launch vehicle
FALCON 9
Launch site
Air Force Eastern Test Range (AFETR)
Object type
Payload
Rocket body
Debris
Shape & HBR
Box + 1 Pan, 10.1 m
Radar Cross Section
13.562 m², Large (>1 m²)

Expand to show TLE details & history
Last TLE update: 2 days ago

TLE from 2 days ago
0 STARLINK-3950
1 53264U 22086Y   26171.21245284  .00000363  00000-0  40915-4 0  9998
2 53264  53.1615  93.7688 0001569 117.8955 242.2196 15.08836844216542
Epoch: 2026-06-20T05:05Z
TLE epoch observation values (Epoch: 2026-06-20T05:05:55.925Z)
Latitude
0.00003°
Longitude
108.85548°
Altitude
541.151 km
Speed
7.593 km/s
True Right ascension
06h 15m 04s
True Declination
0° 00' 00"
Sunlit
Object was in daylight at epoch
Visualization orbit readout
Latitude
Unknown
Longitude
Unknown
Altitude
Unknown
Speed
Unknown
Apparent Right ascension
Unknown
Apparent Declination
Unknown
Sunlit
N/A
Visualization observer readout
Local Sidereal Time
21:25:04
Azimuth
Unknown
Elevation
Unknown
Doppler factor
Unknown
Orbital elements
Apogee altitude
541.092 km
Perigee altitude
538.921 km
Semi-major axis
6,918.144 km
Eccentricity
0.00016
Inclination
53.1615°
RAAN
93.7688°
Arg. of periapsis
117.8955°
True anomaly
242.20369°
Mean anomaly
242.2196°
Eccentric anomaly
242.21165°
Mean motion
3.77189 °/min
Orbital period
95.44 mins
BSTAR
0.000040915
Loading maneuver chart data...
Computing Atmospheric mass density...
Loading historical data...
Loading historical data...
Loading historical data...
Loading historical data...
Loading historical data...
Loading historical data...
Loading historical data...

Documentation

Showing up to 5 results
|